Weather History for MMLP - December, 2011

Change the Weather History Date:

Sunday, December 11, 2011

  Actual Average Record
Temperature  
Mean Temperature 70 °F -  
Max Temperature 78 °F 76 °F 84 °F (2008)
Min Temperature 63 °F 53 °F 46 °F (2010)
Cooling Degree Days 6    
Growing Degree Days 20 (Base 50)    
Moisture  
Dew Point 58 °F    
Average Humidity 65    
Maximum Humidity 77    
Minimum Humidity 46    
Precipitation  
Precipitation 0.00 in - - ()
Sea Level Pressure  
Sea Level Pressure 29.98 in    
Wind  
Wind Speed 3 mph ()    
Max Wind Speed 9 mph    
Max Gust Speed -    
Visibility 10.9 miles    
Events      
Averages and records for this station are not official NWS values.
T = Trace of Precipitation, MM = Missing Value Source: Averaged Metar Reports

Daily Weather History Graph

Daily Weather History Graph

Search for Another Location

Airport or City:

Trip Planner

Search our weather history database for the weather conditions in past years. The results will help you decide how hot, cold, wet, or windy it might be!

Date:

Astronomy

Dec. 11, 2011 Rise Set
Actual Time 6:54 AM MST 5:35 PM MST
Civil Twilight 6:29 AM MST 5:59 PM MST
Nautical Twilight 6:01 AM MST 6:28 PM MST
Astronomical Twilight 5:33 AM MST 6:55 PM MST
Moon 6:47 PM MST (12/11) 7:45 AM MST (12/11)
Length of Visible Light 11h 30m
Length of Day
10h 40m
Full, 99% of the Moon is Illuminated
Dec 11
Full
Dec 17
Last Quarter
Dec 24
New
Dec 31
First Quarter
Jan 9
Full

Hourly Weather History & Observations

Time (MST) Temp. Dew Point Humidity Pressure Visibility Wind Dir Wind Speed Gust Speed Precip Events Conditions
4:50 AM 65 °F 59 °F 75% 29.96 in 2 mi North 2.2 mph - -   Mostly Cloudy
5:50 AM 60.8 °F 53.6 °F 77% 29.97 in 10.0 mi Calm Calm - N/A   Mostly Cloudy
6:40 AM 60.8 °F 53.6 °F 77% 29.97 in 10.0 mi SSE 3.5 mph - N/A   Mostly Cloudy
7:45 AM 60.8 °F 53.6 °F 77% 30.05 in 10.0 mi Calm Calm - N/A   Overcast
7:50 AM 67 °F 61 °F 75% 29.99 in 12 mi North 2.2 mph - -   Mostly Cloudy
8:41 AM 64.4 °F 55.4 °F 73% 30.02 in 10.0 mi South 3.5 mph - N/A   Overcast
9:40 AM 69.8 °F 57.2 °F 64% 30.03 in 10.0 mi NE 3.5 mph - N/A   Mostly Cloudy
10:48 AM 71.6 °F 57.2 °F 60% 30.07 in 10.0 mi NNW 4.6 mph - N/A   Mostly Cloudy
10:50 AM 75 °F 62 °F 55% 30.01 in 19 mi NNW 2.2 mph - -   Scattered Clouds
11:40 AM 71.6 °F 59.0 °F 64% 30.00 in 10.0 mi NW 9.2 mph - N/A   Mostly Cloudy
12:41 PM 73.4 °F 59.0 °F 61% 29.98 in 12.0 mi NNW 8.1 mph - N/A   Mostly Cloudy
1:40 PM 75.2 °F 57.2 °F 53% 29.99 in 12.0 mi NNW 4.6 mph - N/A   Mostly Cloudy
1:50 PM 78 °F 61 °F 46% 29.94 in 19 mi WNW 4.5 mph - -   Scattered Clouds
2:44 PM 75.2 °F 57.2 °F 53% 29.92 in 12.0 mi North 8.1 mph - N/A   Mostly Cloudy
3:52 PM 73.4 °F 55.4 °F 53% 29.91 in 12.0 mi North 9.2 mph - N/A   Mostly Cloudy
4:50 PM 74 °F 62 °F 57% 29.89 in 19 mi North 4.5 mph - -   Partly Cloudy
5:48 PM 69.8 °F 55.4 °F 60% 29.93 in 10.0 mi North 5.8 mph - N/A   Mostly Cloudy
6:43 PM 68.0 °F 57.2 °F 68% 29.95 in 10.0 mi West 5.8 mph - N/A   Scattered Clouds
7:48 PM 68.0 °F 57.2 °F 68% 30.06 in 10.0 mi Calm Calm - N/A   Scattered Clouds
7:50 PM 71 °F 63 °F 68% 29.94 in 2 mi Calm Calm - -   Mostly Cloudy
8:48 PM 68.0 °F 57.2 °F 68% 29.97 in 10.0 mi Calm Calm - N/A   Scattered Clouds
9:41 PM 68.0 °F 57.2 °F 68% 29.97 in 10.0 mi Calm Calm - N/A   Scattered Clouds
10:47 PM 66.2 °F 57.2 °F 73% 30.09 in 10.0 mi SSE 5.8 mph - N/A   Scattered Clouds